Shoreham, United Kingdom

8:14 AM GMT on February 12, 2016 (GMT +0000)
Shoreham

Weather History for EGKA - September, 2013

Change the Weather History Date:

Thursday, September 19, 2013

  Actual Average Record
Temperature  
Mean Temperature 54 °F -  
Max Temperature 62 °F 60 °F 72 °F (2014)
Min Temperature 47 °F 51 °F 42 °F (2012)
Degree Days  
Heating Degree Days 10    
Growing Degree Days 4 (Base 50)    
Moisture  
Dew Point 53 °F    
Average Humidity 85    
Maximum Humidity 100    
Minimum Humidity 64    
Precipitation  
Precipitation 0.01 in - - ()
Sea Level Pressure  
Sea Level Pressure 29.84 in    
Wind  
Wind Speed 11 mph ()    
Max Wind Speed 26 mph    
Max Gust Speed 34 mph    
Visibility 4.5 miles    
Events Rain    
Averages and records for this station are not official NWS values.
T = Trace of Precipitation, MM = Missing Value Source: Averaged Metar Reports

Daily Weather History Graph

Daily Weather History Graph

Search for Another Location

Airport or City:

Trip Planner

Search our weather history database for the weather conditions in past years. The results will help you decide how hot, cold, wet, or windy it might be!

Date:

Astronomy

Sep. 19, 2013 Rise Set
Actual Time 6:42 AM BST 7:05 PM BST
Civil Twilight 6:09 AM BST 7:38 PM BST
Nautical Twilight 5:30 AM BST 8:17 PM BST
Astronomical Twilight 4:49 AM BST 8:58 PM BST
Moon 6:48 PM BST (9/19) 6:39 AM BST (9/19)
Length of Visible Light 13h 29m
Length of Day
12h 23m
Full, 100% of the Moon is Illuminated
Sep 19
Full
Sep 19
Full
Sep 27
Last Quarter
Oct 5
New
Oct 12
First Quarter

Hourly Weather History & Observations

Time (BST) Temp. Dew Point Humidity Pressure Visibility Wind Dir Wind Speed Gust Speed Precip Events Conditions
12:50 AM 50 °F 42 °F 67% 29.92 in - WNW 10.4 mph - -  
6:50 AM 48 °F 45 °F 85% 29.91 in - West 5.8 mph - -  
7:50 AM 51.8 °F 48.2 °F 88% 29.92 in 6.2 mi North 2.3 mph - N/A   Mostly Cloudy
8:20 AM 51.8 °F 48.2 °F 88% 29.89 in 6.2 mi ENE 1.2 mph - N/A   Scattered Clouds
8:50 AM 53.6 °F 48.2 °F 82% 29.89 in 6.2 mi East 1.2 mph - N/A   Mostly Cloudy
9:20 AM 53.6 °F 48.2 °F 82% 29.89 in 6.2 mi SW 2.3 mph - N/A   Mostly Cloudy
9:50 AM 56 °F 49 °F 71% 29.91 in - SW 2.3 mph - -  
9:50 AM 55.4 °F 50.0 °F 82% 29.89 in 6.2 mi SW 2.3 mph - N/A   Mostly Cloudy
10:20 AM 59.0 °F 51.8 °F 77% 29.89 in 6.2 mi WSW 4.6 mph - N/A   Mostly Cloudy
10:50 AM 62.6 °F 53.6 °F 72% 29.86 in 6.2 mi SW 18.4 mph - N/A   Scattered Clouds
11:20 AM 60.8 °F 51.8 °F 72% 29.86 in 6.2 mi WSW 21.9 mph - N/A   Scattered Clouds
11:50 AM 62.6 °F 53.6 °F 72% 29.86 in 6.2 mi WSW 21.9 mph - N/A   Scattered Clouds
12:20 PM 60.8 °F 50.0 °F 68% 29.86 in 6.2 mi WSW 23.0 mph 34.5 mph N/A   Scattered Clouds
12:50 PM 61 °F 52 °F 64% 29.84 in - WSW 23.0 mph - -  
12:50 PM 60.8 °F 51.8 °F 72% 29.83 in 6.2 mi WSW 21.9 mph 33.4 mph N/A   Scattered Clouds
1:20 PM 60.8 °F 53.6 °F 77% 29.83 in 6.2 mi WSW 26.5 mph - N/A   Mostly Cloudy
1:50 PM 59.0 °F 53.6 °F 82% 29.83 in 6.2 mi SW 21.9 mph 33.4 mph N/A   Mostly Cloudy
2:20 PM 59.0 °F 57.2 °F 94% 29.83 in 2.5 mi SW 23.0 mph - N/A Rain Light Rain
2:50 PM 59.0 °F 57.2 °F 94% 29.80 in 2.8 mi SW 21.9 mph - N/A Rain Light Rain
3:20 PM 59.0 °F 57.2 °F 94% 29.80 in 1.2 mi SW 21.9 mph - N/A Rain Rain
3:50 PM 59 °F 58 °F 96% 29.80 in - SW 18.4 mph - -  
3:50 PM 59.0 °F 59.0 °F 100% 29.80 in 1.2 mi SW 18.4 mph - N/A Rain Light Rain
4:20 PM 59.0 °F 59.0 °F 100% 29.77 in 1.6 mi SW 21.9 mph - N/A Rain Light Rain
4:50 PM 59.0 °F 59.0 °F 100% 29.77 in 1.6 mi SW 19.6 mph 31.1 mph N/A Rain Light Rain
5:20 PM 60.8 °F 60.8 °F 100% 29.77 in 1.2 mi WSW 19.6 mph 31.1 mph N/A Rain Rain
5:50 PM 60.8 °F 60.8 °F 100% 29.77 in 3.1 mi WSW 17.3 mph 28.8 mph N/A   Mostly Cloudy
6:50 PM 60.8 °F 60.8 °F 100% 29.77 in 3.7 mi WSW 12.7 mph - N/A   Scattered Clouds
9:50 PM 56 °F 54 °F 93% 29.87 in - West 10.4 mph - -